| time (UTC) | temp F | wind direction | speed MPH | gust MPH | rain 1hr in | rain 24hr in | rain mn in | humidity % | barometer mb |
| 20260502123021 | 25 | 141 | 0.0 | 1.0 | 0.00 | 0.00 | 0.00 | 87 | 1018.9 |
| 20260502121518 | 25 | 142 | 0.0 | 0.0 | 0.00 | 0.00 | 0.00 | 88 | 1018.9 |
| 20260502114513 | 26 | 360 | 0.0 | 0.0 | 0.00 | 0.00 | 0.00 | 86 | 1019.0 |
| 20260502113011 | 26 | 360 | 0.0 | 0.0 | 0.00 | 0.00 | 0.00 | 86 | 1019.0 |
| 20260502111510 | 26 | 360 | 0.0 | 0.0 | 0.00 | 0.00 | 0.00 | 86 | 1019.0 |
| 20260502110012 | 27 | 360 | 0.0 | 0.0 | 0.00 | 0.00 | 0.00 | 86 | 1019.0 |
| 20260502104515 | 27 | 360 | 0.0 | 0.0 | 0.00 | 0.00 | 0.00 | 84 | 1019.1 |
| 20260502103006 | 28 | 360 | 0.0 | 1.0 | 0.00 | 0.00 | 0.00 | 82 | 1019.0 |
| 20260502101506 | 28 | 360 | 0.0 | 1.0 | 0.00 | 0.00 | 0.00 | 84 | 1019.0 |
| 20260502071536 | 35 | 128 | 0.0 | 1.0 | 0.00 | 0.00 | 0.00 | 65 | 1019.4 |
| 20260502070039 | 36 | 126 | 0.0 | 1.0 | 0.00 | 0.00 | 0.00 | 64 | 1019.4 |
| 20260502064545 | 35 | 123 | 0.0 | 1.0 | 0.00 | 0.00 | 0.00 | 65 | 1019.4 |
| 20260502063034 | 36 | 124 | 0.0 | 1.0 | 0.00 | 0.00 | 0.00 | 62 | 1019.3 |
| 20260502061530 | 36 | 360 | 0.0 | 1.0 | 0.00 | 0.00 | 0.00 | 61 | 1019.3 |
| 20260502060031 | 37 | 360 | 0.0 | 1.0 | 0.00 | 0.00 | 0.00 | 61 | 1019.2 |
| 20260502054534 | 37 | 360 | 0.0 | 0.0 | 0.00 | 0.00 | 0.00 | 59 | 1019.2 |
| 20260502053031 | 38 | 360 | 0.0 | 3.0 | 0.00 | 0.00 | 0.00 | 57 | 1019.2 |
| 20260502051534 | 40 | 360 | 0.0 | 0.0 | 0.00 | 0.00 | 0.00 | 54 | 1019.1 |
| 20260502050040 | 40 | 360 | 0.0 | 1.0 | 0.00 | 0.00 | 0.00 | 53 | 1019.1 |
| 20260502044526 | 41 | 76 | 0.0 | 1.0 | 0.00 | 0.00 | 0.00 | 52 | 1019.1 |
| 20260502043030 | 43 | 90 | 0.0 | 1.0 | 0.00 | 0.00 | 0.00 | 49 | 1019.0 |
| 20260502041526 | 44 | 360 | 0.0 | 1.0 | 0.00 | 0.00 | 0.00 | 44 | 1018.9 |
| 20260502040025 | 44 | 89 | 0.0 | 2.0 | 0.00 | 0.00 | 0.00 | 45 | 1018.7 |
| 20260502034525 | 45 | 59 | 0.0 | 2.0 | 0.00 | 0.00 | 0.00 | 44 | 1018.3 |
| 20260502033027 | 46 | 53 | 0.0 | 1.0 | 0.00 | 0.00 | 0.00 | 42 | 1018.1 |
| 20260502031524 | 46 | 351 | 0.0 | 2.0 | 0.00 | 0.00 | 0.00 | 39 | 1017.8 |
| 20260502030024 | 47 | 46 | 0.0 | 2.0 | 0.00 | 0.00 | 0.00 | 39 | 1017.6 |
| 20260502024528 | 49 | 360 | 0.0 | 2.0 | 0.00 | 0.00 | 0.00 | 40 | 1017.5 |
| 20260502023023 | 51 | 62 | 0.0 | 2.0 | 0.00 | 0.00 | 0.00 | 35 | 1017.5 |
| 20260502021525 | 55 | 294 | 0.0 | 1.0 | 0.00 | 0.00 | 0.00 | 30 | 1017.6 |
| 20260502020022 | 58 | 292 | 0.0 | 2.0 | 0.00 | 0.00 | 0.00 | 27 | 1017.5 |
| 20260502014521 | 59 | 319 | 0.0 | 3.0 | 0.00 | 0.00 | 0.00 | 24 | 1017.5 |
| 20260502013020 | 60 | 221 | 0.0 | 2.0 | 0.00 | 0.00 | 0.00 | 23 | 1017.6 |
| 20260502011519 | 60 | 218 | 0.0 | 3.0 | 0.00 | 0.00 | 0.00 | 23 | 1017.7 |
| 20260502010025 | 60 | 235 | 1.0 | 3.0 | 0.00 | 0.00 | 0.00 | 23 | 1017.8 |
| 20260502004517 | 60 | 172 | 1.0 | 5.0 | 0.00 | 0.00 | 0.00 | 23 | 1017.9 |
| 20260502003016 | 61 | 250 | 0.0 | 3.0 | 0.00 | 0.00 | 0.00 | 22 | 1017.9 |
| 20260502001514 | 60 | 186 | 0.0 | 4.0 | 0.00 | 0.00 | 0.00 | 24 | 1018.1 |
| 20260502000016 | 61 | 260 | 0.0 | 5.0 | 0.00 | 0.00 | 0.00 | 22 | 1018.2 |
| 20260501234512 | 61 | 329 | 1.0 | 5.0 | 0.00 | 0.00 | 0.00 | 22 | 1018.3 |
| 20260501233011 | 61 | 259 | 2.0 | 4.0 | 0.00 | 0.00 | 0.00 | 23 | 1018.3 |
| 20260501231508 | 61 | 257 | 2.0 | 5.0 | 0.00 | 0.00 | 0.00 | 25 | 1018.5 |
| 20260501230008 | 61 | 251 | 2.0 | 7.0 | 0.00 | 0.00 | 0.00 | 24 | 1018.8 |
| 20260501224506 | 61 | 252 | 1.0 | 7.0 | 0.00 | 0.00 | 0.00 | 23 | 1019.0 |
| 20260501223004 | 61 | 271 | 2.0 | 5.0 | 0.00 | 0.00 | 0.00 | 25 | 1019.1 |
| 20260501221509 | 60 | 161 | 2.0 | 6.0 | 0.00 | 0.00 | 0.00 | 23 | 1019.3 |
| 20260501220001 | 61 | 304 | 2.0 | 4.0 | 0.00 | 0.00 | 0.00 | 24 | 1019.5 |
| 20260501214607 | 61 | 327 | 1.0 | 9.0 | 0.00 | 0.00 | 0.00 | 24 | 1019.6 |
| 20260501213106 | 62 | 325 | 1.0 | 6.0 | 0.00 | 0.00 | 0.00 | 24 | 1019.9 |
| 20260501211600 | 61 | 243 | 1.0 | 4.0 | 0.00 | 0.00 | 0.00 | 23 | 1020.0 |
| 20260501210122 | 60 | 331 | 2.0 | 6.0 | 0.00 | 0.00 | 0.00 | 23 | 1020.1 |
| 20260501204550 | 60 | 309 | 2.0 | 5.0 | 0.00 | 0.00 | 0.00 | 25 | 1020.4 |
| 20260501203053 | 59 | 238 | 1.0 | 5.0 | 0.00 | 0.00 | 0.00 | 26 | 1020.5 |
| 20260501201555 | 59 | 25 | 1.0 | 9.0 | 0.00 | 0.00 | 0.00 | 24 | 1020.7 |
| 20260501200044 | 58 | 330 | 3.0 | 6.0 | 0.00 | 0.00 | 0.00 | 28 | 1020.9 |
| 20260501194542 | 57 | 208 | 0.0 | 5.0 | 0.00 | 0.00 | 0.00 | 26 | 1021.0 |
| 20260501193041 | 57 | 161 | 1.0 | 6.0 | 0.00 | 0.00 | 0.00 | 26 | 1021.1 |
| 20260501191549 | 56 | 324 | 1.0 | 4.0 | 0.00 | 0.00 | 0.00 | 27 | 1021.3 |
| 20260501190044 | 55 | 182 | 1.0 | 6.0 | 0.00 | 0.00 | 0.00 | 27 | 1021.4 |
| 20260501184532 | 55 | 242 | 1.0 | 3.0 | 0.00 | 0.00 | 0.00 | 27 | 1021.6 |
| 20260501183030 | 54 | 233 | 1.0 | 3.0 | 0.00 | 0.00 | 0.00 | 28 | 1021.8 |
| 20260501181530 | 53 | 345 | 1.0 | 6.0 | 0.00 | 0.00 | 0.00 | 29 | 1021.9 |
| 20260501180033 | 52 | 173 | 1.0 | 4.0 | 0.00 | 0.00 | 0.00 | 30 | 1022.0 |
| 20260501174526 | 52 | 242 | 1.0 | 4.0 | 0.00 | 0.00 | 0.00 | 31 | 1022.1 |
| 20260501173029 | 51 | 309 | 1.0 | 6.0 | 0.00 | 0.00 | 0.00 | 34 | 1022.5 |
| 20260501171518 | 49 | 347 | 1.0 | 5.0 | 0.00 | 0.00 | 0.00 | 38 | 1022.6 |
| 20260501170014 | 48 | 177 | 1.0 | 3.0 | 0.00 | 0.00 | 0.00 | 39 | 1022.8 |
| 20260501164509 | 46 | 360 | 0.0 | 4.0 | 0.00 | 0.00 | 0.00 | 43 | 1022.7 |
| 20260501163006 | 43 | 360 | 0.0 | 1.0 | 0.00 | 0.00 | 0.00 | 49 | 1022.9 |
| 20260501161602 | 41 | 360 | 0.0 | 3.0 | 0.00 | 0.00 | 0.00 | 51 | 1023.0 |
| 20260501160059 | 39 | 360 | 0.0 | 2.0 | 0.00 | 0.00 | 0.00 | 56 | 1023.1 |
| 20260501154555 | 36 | 179 | 0.0 | 2.0 | 0.00 | 0.00 | 0.00 | 61 | 1023.3 |
| 20260501153107 | 34 | 179 | 0.0 | 3.0 | 0.00 | 0.00 | 0.00 | 66 | 1023.4 |
| 20260501151543 | 31 | 360 | 1.0 | 3.0 | 0.00 | 0.00 | 0.00 | 74 | 1023.6 |
| 20260501150050 | 28 | 177 | 0.0 | 2.0 | 0.00 | 0.00 | 0.00 | 80 | 1023.6 |
| 20260501144548 | 27 | 178 | 0.0 | 2.0 | 0.00 | 0.00 | 0.00 | 83 | 1023.6 |
| 20260501143042 | 25 | 179 | 0.0 | 1.0 | 0.00 | 0.00 | 0.00 | 87 | 1023.7 |
| 20260501141555 | 22 | 179 | 0.0 | 0.0 | 0.00 | 0.00 | 0.00 | 90 | 1023.7 |